Вернуться в каталог

STARLINK-30864

АктивенСвязьVLEO
NORAD 58243·PAYLOAD·🇺🇸 United States

Запущен Nov 8, 2023 с Cape Canaveral Space Force Station

Loading…

Ближайшие Пролёты (ближайшие 24 часа)

TLE

СвежийSource: CelesTrak SupGP

Эпоха: Sep 15, 2026, 03:20 UTC

1 58243C 23171P   26258.13937500  .00009895  00000+0  35838-3 0  2585
2 58243  43.0011 295.3805 0001373 262.1108 245.0061 15.27575462    12

Отслеживайте STARLINK-30864 в реальном времени с AllMySat

Download on the App Store